{"data":{"norad_id":66396,"intl_designator":"2025-257S","name":"STARLINK-35669","alt_names":[],"object_type":"PAYLOAD","status":"ACTIVE","operator":null,"country":"US","launch_date":"2025-11-09","launch_site_code":"AFETR","launch_vehicle":null,"mission":null,"orbit_class":"UNKNOWN","rcs_meters":null,"size_class":null,"mass_kg":null,"dimensions":null,"purposes":["comms"],"wikipedia_slug":null,"has_3d_model":false,"image_url":null,"decayed_at":null,"tle_current":{"epoch":"2026-09-20T19:41:27.727584Z","epoch_age_seconds":65726,"freshness":"FRESH","line1":"1 66396U 25257S   26263.82045981  .00015876  00000+0  48004-3 0  9992","line2":"2 66396  53.1593  26.0655 0001065  97.4350 262.6774 15.34397733 49677","mean_motion":15.34397733,"eccentricity":0.0001065,"inclination_deg":53.1593,"raan_deg":26.0655,"arg_perigee_deg":97.435,"mean_anomaly_deg":262.6774,"bstar":0.00048004,"rev_number":4967,"period_min":93.847896736954,"perigee_km":461.98142801397,"apogee_km":463.43852842033,"semimajor_km":6840.8469782171,"source":"CELESTRAK","updated_at":"2026-09-21T09:00:35.888328Z"}}}